Find Starlink 31009

NORAD ID: 58530 Int'l Des: 2023-191 Owner: SPXS Country: US Constellation: starlink operational
LEOCIRCULAR

現在のビュー

3D地球を読み込み中...

About Starlink 31009

Starlink 31009 (NORAD 58530) is a starlink constellation satellite (v2 mini) launched Dec 7, 2023 by SPXS of US. It operates in LEO, CIRCULAR orbit with a mass of 730.00 kg.

Starlink 31009について

説明を読み込み中...

次回通過

Passes for default location (London). Set your location on the main map for personalized predictions.

高度履歴

Loading altitude history...

軌道要素

1 58530U 23191Y 26161.81339813 -.00001170 00000-0 -33010-4 0 9991
2 58530 43.0028 297.4928 0000540 293.7367 66.3428 15.27583603139739
Epoch: Jun 10, 2026 • Age: 24 hours

現在のステータス

高度 482.4 km
速度 7.63 km/s
衛星直下点 2.56°N, 108.39°E
打ち上げ日 Dec 7, 2023
運用期間 2.5 years
タイプ internet

技術仕様

分類 Payload
質量 730.00 kg
乾燥質量 700.00 kg
総質量 730.00 kg
長さ 0.30 m
直径 4.10 m
スパン 29.00 m
形状 Box + pan
製造者 SPXS
バスタイプ Starlink V2M
フェーズステータス In Orbit
所有者/国 SPXS/US

Most Searched